Starlink 33719

operational
NORAD ID: 63578 Int'l Des: 2025-076 Owner: SPXS Country: US Constellation: starlink
LEOCIRCULAR

Starlink 33719について

説明を読み込み中...

リアルタイム位置

3D地球を読み込み中...

次回通過

高度履歴

Altitude vs Time

uPlot chart will show altitude changes over time

軌道要素

1 63578U 25076K 25258.33896407 .00036924 00000-0 13432-2 0 9990
2 63578 43.0004 231.9115 0001364 263.3924 96.6773 15.27613722 25019
Epoch: Sep 15, 2025 • Age: 16 hours

現在のステータス

高度 484.4 km
速度 7.63 km/s
衛星直下点 31.94°N, 5.35°E
打ち上げ日 Apr 14, 2025
運用期間 0.4 years
タイプ internet

技術仕様

分類 Payload
質量 575.00 kg
乾燥質量 530.00 kg
総質量 575.00 kg
長さ 0.30 m
直径 4.10 m
スパン 29.00 m
形状 Box + pan
製造者 SPXS
バスタイプ Starlink V2MO
フェーズステータス In Orbit
所有者/国 SPXS/US

大規模コンステレーション

Loading constellations...